www.pogodaiklimat.ru

Погода и климат >> Архив погоды >> Италия >> Отранто


ПОГОДА в Отранто

  • Прогноз погоды в Отранто
  • Монитор погоды в Отранто

АРХИВ ПОГОДЫ в Отранто

Время (UTC), дата Ветер
(напр.,м/с)
 
Видим.   Явления Облачность Т
(С)
Тd
(С)
f
(%)
Тe
(С)
Тes
(С)
Комфортность P
(гПа)
Po
(гПа)
Тmin
(С)
Tmax
(С)
R
(мм)
R24
(мм)
S
(см)
22 12.08 С 3 н/о н/о +26.1 +26.1 100 +39 +39 очень
душно
1009.3 999.6
23 12.08 С 3 н/о н/о +25.8 +25.8 100 +38 +38 очень
душно
1009.1 999.4
00 13.08 СЗ 3 н/о н/о +25.1 +25.0 99 +36 +36 очень
душно
1009.2 999.4
01 13.08 СЗ 4 н/о н/о +25.1 +25.0 99 +36 +36 очень
душно
1009.0 999.2
02 13.08 СЗ 3 н/о н/о +24.9 +24.8 99 +35 +35 очень
душно
1008.9 999.1
03 13.08 СЗ 3 н/о н/о +25.0 +24.9 99 +35 +35 очень
душно
1008.7 998.9
04 13.08 СЗ 3 н/о н/о +25.1 +25.0 99 +36 +36 очень
душно
1008.7 998.9
05 13.08 СЗ 2 н/о н/о +25.5 +25.4 99 +37 +37 очень
душно
1008.8 999.1
06 13.08 С 3 н/о н/о +27.5 +27.5 100 +44 +44 опасность
перегрева
1008.8 999.1 +24.8 1
07 13.08 С 5 н/о н/о +28.8 +28.6 99 +49 +49 опасность
перегрева
1008.9 999.3
08 13.08 СВ 3 н/о н/о +29.7 +29.2 97 +52 +52 опасность
перегрева
1009.0 999.4
09 13.08 С 4 н/о н/о +29.6 +29.3 98 +52 +52 опасность
перегрева
1009.3 999.7
10 13.08 СВ 4 н/о н/о +29.8 +29.8 100 +54 +54 опасность
перегрева
1009.3 999.7
11 13.08 С 6 н/о н/о +30.3 +30.3 100 +57 +57 опасность
перегрева
1008.9 999.3
12 13.08 С 6 н/о н/о +30.3 +29.8 97 +55 +55 опасность
перегрева
1008.4 998.8
13 13.08 С 5 н/о н/о +30.8 +30.4 98 +58 +58 опасность
перегрева
1007.9 998.3
14 13.08 СВ 6 н/о н/о +30.1 +29.9 99 +55 +55 опасность
перегрева
1007.6 998.0
15 13.08 С 5 н/о н/о +29.7 +29.7 100 +54 +54 опасность
перегрева
1007.5 997.9
16 13.08 С 5 н/о н/о +29.1 +29.1 100 +51 +51 опасность
перегрева
1007.5 997.9
17 13.08 С 4 н/о н/о +28.5 +28.5 100 +48 +48 опасность
перегрева
1007.3 997.7
18 13.08 СЗ 4 н/о н/о +27.3 +27.3 100 +43 +43 опасность
перегрева
1007.4 997.7 +31.1
19 13.08 СЗ 5 н/о н/о +26.6 +26.6 100 +41 +41 опасность
перегрева
1007.8 998.1
20 13.08 СЗ 3 н/о н/о +25.7 +25.7 100 +38 +38 очень
душно
1008.2 998.5
21 13.08 СЗ 4 н/о н/о +25.4 +25.3 99 +37 +37 очень
душно
1008.2 998.5
22 13.08 СЗ 3 н/о н/о +25.4 +25.2 99 +37 +37 очень
душно
1008.1 998.4
23 13.08 СЗ 3 н/о н/о +25.2 +25.0 99 +36 +36 очень
душно
1008.1 998.4
00 14.08 СЗ 3 н/о н/о +24.8 +24.7 99 +35 +35 очень
душно
1007.8 998.0
01 14.08 СЗ 3 н/о н/о +24.7 +24.6 99 +35 +35 очень
душно
1007.5 997.7
02 14.08 СЗ 2 н/о н/о +24.3 +24.2 99 +33 +33 очень
душно
1007.3 997.5
03 14.08 СЗ 2 н/о н/о +24.2 +24.1 99 +33 +33 очень
душно
1007.2 997.4
04 14.08 СЗ 2 н/о н/о +24.5 +24.1 98 +34 +34 очень
душно
1007.4 997.6
05 14.08 С 1 н/о н/о +24.7 +23.1 91 +33 +33 очень
душно
1007.5 997.8
06 14.08 СВ 1 н/о н/о +27.8 +27.8 100 +45 +45 опасность
перегрева
1007.7 998.0 +23.7 301
07 14.08 штиль 0 н/о н/о +28.6 +26.8 90 +45 +45 опасность
перегрева
1008.0 998.4
08 14.08 СВ 1 н/о н/о +30.6 +28.8 90 +53 +53 опасность
перегрева
1008.1 998.5
09 14.08 В 3 н/о н/о +29.1 +28.8 98 +50 +50 опасность
перегрева
1008.2 998.6
10 14.08 С 4 н/о н/о +29.3 +28.8 97 +51 +51 опасность
перегрева
1008.6 999.0
11 14.08 С 6 н/о н/о +30.5 +28.7 90 +52 +52 опасность
перегрева
1008.6 999.0
12 14.08 С 8 н/о н/о +30.1 +29.4 96 +54 +54 опасность
перегрева
1008.4 998.8
13 14.08 С 8 н/о н/о +29.8 +28.9 95 +52 +52 опасность
перегрева
1008.5 998.9
14 14.08 С 8 н/о н/о +29.3 +28.6 96 +50 +50 опасность
перегрева
1008.3 998.7
15 14.08 С 6 н/о н/о +29.1 +29.1 100 +51 +51 опасность
перегрева
1008.0 998.4
16 14.08 С 6 н/о н/о +28.5 +28.2 98 +48 +48 опасность
перегрева
1007.7 998.1
17 14.08 С 5 н/о н/о +28.3 +28.3 100 +48 +48 опасность
перегрева
1008.3 998.6
18 14.08 С 5 н/о н/о +26.9 +26.9 100 +42 +42 опасность
перегрева
1008.7 999.0 +31.0
19 14.08 С 4 н/о н/о +26.1 +25.9 99 +39 +39 очень
душно
1009.5 999.8
20 14.08 С 5 н/о н/о +25.7 +25.7 100 +38 +38 очень
душно
1009.7 1000.0
21 14.08 С 4 н/о н/о +25.3 +25.2 99 +36 +36 очень
душно
1009.6 999.8
22 14.08 С 5 н/о н/о +24.9 +24.8 99 +35 +35 очень
душно
1009.6 999.8
23 14.08 СЗ 5 н/о н/о +24.5 +24.4 99 +34 +34 очень
душно
1009.6 999.8
00 15.08 С 5 н/о н/о +24.3 +24.2 99 +33 +33 очень
душно
1009.6 999.8
01 15.08 С 5 н/о н/о +24.3 +24.2 99 +33 +33 очень
душно
1009.6 999.8
02 15.08 С 5 н/о н/о +25.1 +25.0 99 +36 +36 очень
душно
1009.5 999.7
03 15.08 С 6 н/о н/о +24.9 +24.8 99 +35 +35 очень
душно
1009.5 999.7
04 15.08 СЗ 5 н/о н/о +24.5 +24.4 99 +34 +34 очень
душно
1009.7 999.9
05 15.08 С 5 н/о н/о +25.0 +24.9 99 +35 +35 очень
душно
1009.8 1000.0
06 15.08 С 7 н/о н/о +26.2 +26.0 99 +39 +39 очень
душно
1010.2 1000.5 +24.2 512
07 15.08 СЗ 6 н/о н/о +26.7 +26.0 96 +40 +40 очень
душно
1010.5 1000.8
08 15.08 С 9 н/о н/о +26.4 +24.8 91 +38 +38 очень
душно
1010.7 1001.0
09 15.08 СЗ 8 н/о н/о +26.9 +25.3 91 +39 +39 очень
душно
1010.8 1001.1
10 15.08 С 8 н/о н/о +27.7 +25.5 88 +41 +41 опасность
перегрева
1010.7 1001.0
11 15.08 СЗ 9 н/о н/о +28.3 +25.9 87 +42 +42 опасность
перегрева
1010.7 1001.0
12 15.08 С 8 н/о н/о +28.4 +25.8 86 +42 +42 опасность
перегрева
1010.5 1000.8
13 15.08 С 8 н/о н/о +28.1 +25.9 88 +42 +42 опасность
перегрева
1010.5 1000.8
14 15.08 СЗ 8 н/о н/о +27.6 +25.2 87 +40 +40 очень
душно
1010.7 1001.0
15 15.08 С 8 н/о н/о +27.5 +25.1 87 +40 +40 очень
душно
1010.7 1001.0
16 15.08 СЗ 8 н/о н/о +26.5 +24.3 88 +37 +37 очень
душно
1010.7 1001.0
17 15.08 С 7 н/о н/о +25.8 +24.2 91 +36 +36 очень
душно
1010.9 1001.1
18 15.08 С 7 н/о н/о +24.6 +23.0 91 +33 +33 очень
душно
1011.5 1001.7 +28.9
19 15.08 С 5 н/о н/о +24.1 +22.7 92 +32 +32 очень
душно
1012.3 1002.5
20 15.08 С 5 н/о н/о +23.7 +22.3 92 +31 +31 очень
душно
1012.6 1002.8
21 15.08 СЗ 4 н/о н/о +23.3 +21.9 92 +32 +32 очень
душно
1012.9 1003.0
22 15.08 СЗ 4 н/о н/о +22.0 +20.6 92 +28 +28 душно 1012.7 1002.8
23 15.08 СЗ 4 н/о н/о +21.5 +20.1 92 +27 +27 душно 1012.5 1002.6
00 16.08 СЗ 4 н/о н/о +21.1 +20.7 98 +26 +26 душно 1011.9 1002.0
01 16.08 СЗ 4 н/о н/о +21.0 +20.8 99 +27 +27 душно 1011.9 1002.0
02 16.08 С 3 н/о н/о +20.8 +20.7 99 +26 +26 душно 1011.8 1001.9
03 16.08 СЗ 3 н/о н/о +20.8 +20.7 99 +26 +26 душно 1011.8 1001.9
04 16.08 СЗ 3 н/о н/о +20.7 +20.6 99 +26 +26 душно 1012.0 1002.1
05 16.08 СЗ 3 н/о н/о +20.8 +20.7 99 +26 +26 душно 1012.4 1002.5
06 16.08 С 4 н/о н/о +23.3 +23.2 99 +33 +33 очень
душно
1012.3 1002.5 +20.4 308
07 16.08 С 5 н/о н/о +25.5 +24.9 96 +36 +36 очень
душно
1012.4 1002.6
08 16.08 С 6 н/о н/о +26.9 +24.7 88 +38 +38 очень
душно
1012.6 1002.9
09 16.08 С 7 н/о н/о +27.1 +25.9 93 +40 +40 очень
душно
1012.7 1003.0
10 16.08 С 7 н/о н/о +27.5 +25.3 88 +40 +40 очень
душно
1012.6 1002.9
11 16.08 С 7 н/о н/о +27.8 +25.8 89 +41 +41 опасность
перегрева
1012.5 1002.8
12 16.08 С 7 н/о н/о +27.9 +26.7 93 +43 +43 опасность
перегрева
1012.6 1002.9
13 16.08 С 7 н/о н/о +27.8 +26.7 94 +43 +43 опасность
перегрева
1012.7 1003.0
14 16.08 СЗ 7 н/о н/о +27.8 +25.6 88 +41 +41 опасность
перегрева
1012.7 1003.0
15 16.08 С 7 н/о н/о +27.1 +25.5 91 +40 +40 очень
душно
1012.5 1002.8
16 16.08 СВ 6 н/о н/о +26.5 +24.9 91 +38 +38 очень
душно
1012.5 1002.7
17 16.08 С 5 н/о н/о +25.8 +24.2 91 +36 +36 очень
душно
1012.7 1002.9
18 16.08 С 3 н/о н/о +24.6 +23.0 91 +33 +33 очень
душно
1013.0 1003.2 +28.2
19 16.08 СЗ 3 н/о н/о +23.4 +22.0 92 +32 +32 очень
душно
1013.7 1003.8
20 16.08 СЗ 3 н/о н/о +22.8 +22.4 98 +31 +31 очень
душно
1014.0 1004.1
21 16.08 СЗ 3 н/о н/о +22.6 +22.4 99 +31 +31 очень
душно
1014.2 1004.3
22 16.08 СЗ 2 н/о н/о +22.1 +21.9 99 +29 +29 очень
душно
1014.3 1004.4
23 16.08 СЗ 4 н/о н/о +21.8 +21.6 99 +28 +28 душно 1014.5 1004.6
00 17.08 С 4 н/о н/о +21.7 +21.6 99 +28 +28 душно 1014.4 1004.5
01 17.08 СЗ 4 н/о н/о +21.6 +21.5 99 +28 +28 очень
душно
1013.9 1004.0
02 17.08 С 4 н/о н/о +21.8 +21.7 99 +28 +28 душно 1013.9 1004.0
03 17.08 СЗ 3 н/о н/о +21.8 +21.7 99 +28 +28 душно 1013.9 1004.0
04 17.08 С 4 н/о н/о +21.6 +21.5 99 +28 +28 очень
душно
1013.9 1004.0
05 17.08 С 3 н/о н/о +21.9 +21.8 99 +29 +29 очень
душно
1014.0 1004.1
06 17.08 С 4 н/о н/о +24.1 +24.0 99 +33 +33 очень
душно
1014.1 1004.3 +21.3 408
07 17.08 С 6 н/о н/о +25.9 +24.3 91 +36 +36 очень
душно
1014.2 1004.4
08 17.08 С 7 н/о н/о +26.7 +24.9 90 +38 +38 очень
душно
1014.6 1004.8
09 17.08 С 7 н/о н/о +27.0 +25.4 91 +39 +39 очень
душно
1014.9 1005.1
10 17.08 С 7 н/о н/о +27.2 +25.2 89 +39 +39 очень
душно
1015.0 1005.3
11 17.08 С 6 н/о н/о +27.7 +25.7 89 +41 +41 опасность
перегрева
1014.8 1005.1
12 17.08 С 6 н/о н/о +27.6 +25.6 89 +41 +41 опасность
перегрева
1014.7 1005.0
13 17.08 С 6 н/о н/о +27.8 +25.8 89 +41 +41 опасность
перегрева
1014.5 1004.8
14 17.08 С 6 н/о н/о +27.3 +24.9 87 +39 +39 очень
душно
1014.5 1004.8
15 17.08 С 6 н/о н/о +27.1 +25.9 93 +40 +40 очень
душно
1014.4 1004.7
16 17.08 С 6 н/о н/о +26.7 +24.7 89 +38 +38 очень
душно
1014.3 1004.5
17 17.08 С 6 н/о н/о +25.6 +24.0 91 +35 +35 очень
душно
1014.1 1004.3
18 17.08 С 4 н/о н/о +24.6 +23.0 91 +33 +33 очень
душно
1014.3 1004.5 +28.4
19 17.08 СЗ 3 н/о н/о +23.7 +23.0 96 +31 +31 очень
душно
1014.7 1004.8
20 17.08 С 5 н/о н/о +23.9 +23.8 99 +32 +32 очень
душно
1014.5 1004.7
21 17.08 С 4 н/о н/о +24.3 +23.6 96 +33 +33 очень
душно
1014.5 1004.7
22 17.08 С 4 н/о н/о +23.9 +22.5 92 +31 +31 очень
душно
1014.6 1004.7
23 17.08 СЗ 3 н/о н/о +22.1 +21.5 96 +29 +29 очень
душно
1014.8 1004.9
00 18.08 СЗ 4 н/о н/о +21.7 +21.6 99 +28 +28 душно 1014.6 1004.7
01 18.08 СЗ 3 н/о н/о +21.0 +20.9 99 +27 +27 душно 1014.4 1004.5
02 18.08 С 3 н/о н/о +20.4 +20.3 99 +25 +25 комфорт 1014.4 1004.4
03 18.08 СЗ 3 н/о н/о +20.2 +20.1 99 +24 +24 комфорт 1014.4 1004.4
04 18.08 СЗ 4 н/о н/о +20.6 +20.5 99 +25 +25 комфорт 1014.4 1004.4
05 18.08 С 3 н/о н/о +21.6 +21.5 99 +28 +28 очень
душно
1014.6 1004.7
06 18.08 СЗ 4 н/о н/о +23.7 +23.6 99 +32 +32 очень
душно
1014.8 1004.9 +20.1 408
07 18.08 С 6 н/о н/о +25.9 +25.9 100 +38 +38 очень
душно
1014.8 1005.0
08 18.08 СВ 5 н/о н/о +27.1 +27.1 100 +43 +43 опасность
перегрева
1015.2 1005.4
09 18.08 С 5 н/о н/о +27.0 +25.4 91 +39 +39 очень
душно
1015.3 1005.5
10 18.08 В 4 н/о н/о +26.3 +26.0 98 +39 +39 очень
душно
1015.7 1005.9
11 18.08 СВ 4 н/о н/о +26.8 +25.2 91 +39 +39 очень
душно
1015.8 1006.0
12 18.08 СВ 3 н/о н/о +27.7 +26.5 93 +42 +42 опасность
перегрева
1015.6 1005.9
13 18.08 СВ 3 н/о н/о +27.3 +26.1 93 +41 +41 опасность
перегрева
1015.4 1005.7
14 18.08 СВ 4 н/о н/о +27.2 +26.0 93 +41 +41 опасность
перегрева
1015.3 1005.6
15 18.08 С 3 н/о н/о +27.2 +25.0 88 +39 +39 очень
душно
1015.1 1005.4
16 18.08 СВ 3 н/о н/о +26.9 +25.3 91 +39 +39 очень
душно
1015.2 1005.4
17 18.08 С 4 н/о н/о +26.3 +24.7 91 +37 +37 очень
душно
1015.1 1005.3
18 18.08 СВ 3 н/о н/о +24.9 +23.3 91 +33 +33 очень
душно
1015.2 1005.4 +28.0
19 18.08 СВ 2 н/о н/о +24.7 +24.3 98 +34 +34 очень
душно
1015.5 1005.7
20 18.08 СВ 2 н/о н/о +24.7 +24.6 99 +35 +35 очень
душно
1015.6 1005.8
21 18.08 С 2 н/о н/о +24.3 +24.2 99 +33 +33 очень
душно
1015.3 1005.5
22 18.08 СВ 2 н/о н/о +24.0 +23.9 99 +33 +33 очень
душно
1015.3 1005.4
23 18.08 С 1 н/о н/о +23.1 +23.0 99 +32 +32 очень
душно
1015.4 1005.5
00 19.08 СЗ 2 н/о н/о +21.7 +21.6 99 +28 +28 душно 1015.4 1005.5
01 19.08 З 2 н/о н/о +20.4 +20.3 99 +25 +25 комфорт 1015.5 1005.5
02 19.08 СЗ 3 н/о н/о +21.1 +21.0 99 +26 +26 душно 1015.4 1005.4
03 19.08 СЗ 2 н/о н/о +21.0 +20.9 99 +27 +27 душно 1015.4 1005.4
04 19.08 СЗ 2 н/о н/о +20.5 +20.4 99 +26 +26 душно 1015.5 1005.5
05 19.08 СЗ 1 н/о н/о +20.7 +20.6 99 +27 +27 душно 1015.7 1005.7
06 19.08 СЗ 2 н/о н/о +22.9 +22.8 99 +31 +31 очень
душно
1015.8 1005.9 +20.3 403
07 19.08 С 2 н/о н/о +25.4 +25.3 99 +37 +37 очень
душно
1016.0 1006.2
08 19.08 СВ 3 н/о н/о +26.6 +26.6 100 +41 +41 опасность
перегрева
1016.0 1006.2
09 19.08 С 3 н/о н/о +27.0 +26.3 96 +41 +41 опасность
перегрева
1016.3 1006.5
10 19.08 СВ 4 н/о н/о +27.0 +26.3 96 +41 +41 опасность
перегрева
1016.4 1006.6
11 19.08 В 3 н/о н/о +27.2 +27.2 100 +43 +43 опасность
перегрева
1016.4 1006.6
12 19.08 СВ 3 н/о н/о +27.1 +27.1 100 +43 +43 опасность
перегрева
1016.3 1006.5
13 19.08 ЮВ 2 н/о н/о +27.6 +27.6 100 +45 +45 опасность
перегрева
1016.3 1006.6
14 19.08 В 2 н/о н/о +27.8 +26.2 91 +42 +42 опасность
перегрева
1015.9 1006.2
15 19.08 В 1 н/о н/о +28.3 +26.1 88 +43 +43 опасность
перегрева
1015.9 1006.2
16 19.08 В 1 н/о н/о +28.3 +24.7 81 +40 +40 очень
душно
1015.8 1006.1
17 19.08 штиль 0 н/о н/о +28.0 +23.3 76 +38 +38 очень
душно
1015.7 1006.0
18 19.08 штиль 0 н/о н/о +25.5 +23.3 88 +34 +34 очень
душно
1015.7 1005.9 +28.5
19 19.08 С 1 н/о н/о +25.2 +23.4 90 +34 +34 очень
душно
1016.1 1006.3
20 19.08 СЗ 2 н/о н/о +23.8 +22.7 94 +31 +31 очень
душно
1016.4 1006.5
21 19.08 СЗ 2 н/о н/о +23.2 +21.8 92 +31 +31 очень
душно
1016.3 1006.4

 

Местоположение метеостанции Отранто (Италия): широта 40.10 долгота 18.48 высота над уровнем моря 79 м.

В архиве по умолчанию представлена погода в Отранто за последнюю неделю. Архивные данные за месяц целиком и за предыдущие месяцы, начиная с января 2011 года, Вы можете получить, выбрав интересующий диапазон дат из раскрывающегося списка и нажав кнопку "Ввод!".


*Определитесь, кто Вы:
робот инопланетянин человек

Внимание! Время в таблицах - всемирное. Для получения местного времени необходимо прибавить поправку, которая равна 1 ч.

Смотрите также архив погоды в соседних городах и на ближайших метеорологических станциях:

Погода в Лечче (Италия) (32 км)
Погода в Санта-Мария-ди-Леуке (Италия) (33 км)
Погода в Бриндиси (Италия) (76 км)
Погода на Сазани (Албания) (81 км)
Погода во Влёре (Албания) (94 км)
Погода в Мартина-Франка (Италия) (122 км)
Погода в Саранде (Албания) (132 км)
Погода в Керкире (Греция) (134 км)
Погода в Пунто Алисе (Италия) (136 км)
Погода в Джинозе (Италия) (141 км)

Пояснения к столбцам:

Ветер - указаны скорость ветра в м/с - средняя за 10 мин, порывы в срок и между сроками (в фигурных скобках) и направление, откуда дует ветер: С - северный, СВ - северо-восточный, В - восточный, ЮВ - юго-восточный, Ю - южный, ЮЗ - юго-западный, З - западный, СЗ - северо-западный.
Видимость - горизонтальная дальность видимости в метрах или километрах. При видимости от 1 до 10 км при отсутствии осадков обычно наблюдается дымка, при ухудшении видимости до 1 км и менее - туман. В сухую погоду видимость может ухудшаться дымом, пылью или мглою.
Явления - указаны атмосферные явления, наблюдавшиеся в срок или в последний час перед сроком; фигурными скобками обозначены явления, наблюдавшиеся между сроками (за 1-3 часа до срока); квадратными скобками обозначены град или гололедные отложения с указанием их диаметра в мм.
Облачность - указаны через наклонную черту общая и нижняя облачность в баллах и высота нижней границы облаков в метрах; квадратными скобками обозначены формы облаков: Ci - перистые, Cs - перисто-слоистые, Cc - перисто-кучевые, Ac - высококучевые, As - высокослоистые, Sc - слоисто-кучевые, Ns - слоисто-дождевые, Cu - кучевые, Cb - кучево-дождевые. Подробнее классификацию облаков см. в Атласе облаков (PDF).
T - Температура воздуха - температура, измеренная на высоте 2 м над землей.
Td - Температура точки росы - температура, при понижении до которой содержащийся в воздухе водяной пар достигнет насыщения.
f - Относительная влажность воздуха - влажноcть воздуха, измеренная на высоте 2 м над землей.
Te - Эффективная температура - температура, которую ощущает одетый по сезону человек в тени. Характеристика душности погоды. При расчете учитывается влияние влажности воздуха и скорости ветра на теплоощущения человека.
Tes - Эффективная температура на солнце - температура, которую ощущает человек, с поправкой на солнечный нагрев. Характеристика знойности погоды. Зависит от высоты солнца над горизонтом, облачности и скорости ветра. Ночью, в пасмурную погоду, а также при ветре 12 м/с и более поправка равна нулю.
P - Атмосферное давление - приведенное к уровню моря атмосферное давление.
Po - Атмосферное давление - измеренное на уровне метеостанции атмосферное давление.
Tmin - Минимальная температура - минимум температуры воздуха на высоте 2 м над землей.
Tmax - Максимальная температура - максимум температуры воздуха на высоте 2 м над землей.
R - Количество осадков - Количество выпавших осадков за период времени, мм. При наведении курсора мыши на число - период времени, за который выпало указанное количество осадков.
R24 - Количество осадков - Количество выпавших осадков за 24 часа, мм.
S - Снежный покров - Высота снежного покрова, см. При наведении курсора мыши на число - состояние снежного покрова и степень покрытия местности в баллах.